Pittsfield, IL

4:03 PM CDT on September 20, 2017 (GMT -0500)
Pittsfield Penstone Municipal

Weather History for KPPQ - January, 2014

Change the Weather History Date:

Sunday, January 26, 2014

  Actual Average (KUIN) Record (KUIN)
Temperature  
Mean Temperature 34 °F -  
Max Temperature 50 °F 32 °F 62 °F (2002)
Min Temperature 18 °F 15 °F -16 °F (1904)
Degree Days  
Heating Degree Days 31    
Moisture  
Dew Point 22 °F    
Average Humidity 51    
Maximum Humidity 77    
Minimum Humidity 36    
Precipitation  
Precipitation 0.00 in - - ()
Sea Level Pressure  
Sea Level Pressure 29.66 in    
Wind  
Wind Speed 14 mph (WSW)    
Max Wind Speed 38 mph    
Max Gust Speed 54 mph    
Visibility 10 miles    
Events Snow    
Averages and records for this station are not official NWS values.
T = Trace of Precipitation, MM = Missing Value Source: NWS Daily Summary

Daily Weather History Graph

Daily Weather History Graph

Search for Another Location

Airport or City:

Trip Planner

Search our weather history database for the weather conditions in past years. The results will help you decide how hot, cold, wet, or windy it might be!

Date:

Astronomy

Jan. 26, 2014 Rise Set
Actual Time 7:15 AM CST 5:15 PM CST
Civil Twilight 6:47 AM CST 5:44 PM CST
Nautical Twilight 6:14 AM CST 6:17 PM CST
Astronomical Twilight 5:42 AM CST 6:49 PM CST
Moon 2:53 AM CST (1/26) 1:05 PM CST (1/26)
Length of Visible Light 10h 57m
Length of Day
10h 00m
Waning Crescent, 23% of the Moon is Illuminated
Jan 26
Waning Crescent
Jan 30
New
Feb 6
First Quarter
Feb 14
Full
Feb 22
Last Quarter

Hourly Weather History & Observations

Time (CST) Temp. Windchill Dew Point Humidity Pressure Visibility Wind Dir Wind Speed Gust Speed Precip Events Conditions
12:15 AM 25.2 °F 16.5 °F 8.6 °F 50% 29.82 in 10.0 mi SSE 8.1 mph - N/A   Overcast
12:35 AM 25.5 °F 15.5 °F 8.1 °F 48% 29.79 in 10.0 mi SSE 10.4 mph - N/A   Overcast
12:55 AM 26.2 °F 17.1 °F 7.9 °F 46% 29.77 in 10.0 mi SSE 9.2 mph - N/A   Overcast
1:15 AM 26.4 °F 16.0 °F 8.1 °F 46% 29.73 in 10.0 mi SSE 11.5 mph - N/A   Overcast
1:35 AM 26.6 °F 15.2 °F 7.7 °F 45% 29.68 in 10.0 mi SSE 13.8 mph - N/A   Overcast
1:55 AM 27.3 °F 17.1 °F 7.3 °F 43% 29.68 in 10.0 mi South 11.5 mph - N/A   Overcast
2:15 AM 28.0 °F 20.0 °F 7.9 °F 43% 29.66 in 10.0 mi South 8.1 mph - N/A   Overcast
2:35 AM 30.0 °F 20.0 °F 5.7 °F 36% 29.64 in 10.0 mi South 12.7 mph 19.6 mph N/A   Overcast
2:55 AM 30.2 °F 19.8 °F 5.9 °F 36% 29.62 in 10.0 mi South 13.8 mph - N/A   Overcast
3:15 AM 30.2 °F 20.2 °F 6.1 °F 36% 29.60 in 10.0 mi South 12.7 mph 19.6 mph N/A   Overcast
3:35 AM 30.6 °F 19.8 °F 6.3 °F 36% 29.58 in 10.0 mi South 15.0 mph - N/A   Overcast
3:55 AM 31.1 °F 21.9 °F 7.5 °F 37% 29.55 in 10.0 mi South 11.5 mph 17.3 mph N/A   Mostly Cloudy
4:15 AM 32.0 °F 23.0 °F 8.4 °F 37% 29.54 in 10.0 mi South 11.5 mph 16.1 mph N/A   Scattered Clouds
4:35 AM 32.4 °F 26.0 °F 11.3 °F 42% 29.55 in 10.0 mi SSW 6.9 mph - N/A   Scattered Clouds
4:55 AM 34.2 °F 27.5 °F 15.4 °F 46% 29.56 in 10.0 mi SW 8.1 mph - N/A   Scattered Clouds
5:15 AM 36.9 °F 28.2 °F 19.8 °F 50% 29.55 in 10.0 mi SW 13.8 mph 18.4 mph N/A   Clear
5:35 AM 39.0 °F 29.9 °F 22.8 °F 52% 29.54 in 10.0 mi SW 17.3 mph 25.3 mph N/A   Mostly Cloudy
5:55 AM 40.5 °F 31.2 °F 24.8 °F 54% 29.54 in 10.0 mi WSW 19.6 mph 28.8 mph N/A   Overcast
6:15 AM 40.6 °F 31.4 °F 25.7 °F 55% 29.54 in 10.0 mi WSW 19.6 mph 31.1 mph N/A   Mostly Cloudy
6:35 AM 40.3 °F 32.2 °F 26.4 °F 58% 29.55 in 10.0 mi WSW 15.0 mph 26.5 mph N/A   Mostly Cloudy
6:55 AM 39.4 °F 31.1 °F 26.6 °F 60% 29.56 in 10.0 mi WSW 15.0 mph 20.7 mph N/A   Scattered Clouds
7:15 AM 39.2 °F 32.0 °F 27.3 °F 62% 29.58 in 10.0 mi WSW 11.5 mph - N/A   Clear
7:35 AM 38.8 °F 31.6 °F 27.5 °F 64% 29.57 in 10.0 mi WSW 11.5 mph - N/A   Clear
7:55 AM 39.4 °F 33.8 °F 28.2 °F 64% 29.58 in 10.0 mi WSW 8.1 mph - N/A   Clear
8:15 AM 39.7 °F 34.9 °F 28.9 °F 65% 29.58 in 10.0 mi SW 6.9 mph - N/A   Clear
8:35 AM 41.0 °F 35.2 °F 29.3 °F 63% 29.58 in 10.0 mi SW 9.2 mph - N/A   Clear
8:55 AM 43.2 °F 38.4 °F 30.2 °F 60% 29.58 in 10.0 mi WSW 8.1 mph - N/A   Clear
9:15 AM 44.8 °F 38.3 °F 30.7 °F 58% 29.58 in 10.0 mi WSW 13.8 mph 17.3 mph N/A   Clear
9:35 AM 46.6 °F - 31.3 °F 55% 29.59 in 10.0 mi WSW 12.7 mph 19.6 mph N/A   Clear
9:55 AM 47.7 °F - 31.5 °F 53% 29.60 in 10.0 mi West 19.6 mph 25.3 mph N/A   Mostly Cloudy
10:15 AM 48.4 °F - 31.8 °F 53% 29.60 in 10.0 mi West 15.0 mph - N/A   Scattered Clouds
10:35 AM 48.7 °F - 31.6 °F 52% 29.61 in 10.0 mi West 20.7 mph 31.1 mph N/A   Scattered Clouds
10:55 AM 47.3 °F - 30.7 °F 53% 29.62 in 10.0 mi WNW 18.4 mph 27.6 mph N/A   Mostly Cloudy
11:15 AM 48.2 °F - 29.7 °F 49% 29.62 in 10.0 mi West 18.4 mph 28.8 mph N/A   Mostly Cloudy
11:35 AM 49.1 °F - 29.7 °F 47% 29.61 in 10.0 mi WNW 18.4 mph 21.9 mph N/A   Overcast
11:55 AM 47.5 °F - 29.5 °F 50% 29.60 in 10.0 mi WNW 13.8 mph 21.9 mph N/A   Scattered Clouds
12:15 PM 48.6 °F - 29.3 °F 47% 29.60 in 10.0 mi WNW 16.1 mph 25.3 mph N/A   Scattered Clouds
12:35 PM 49.1 °F - 28.8 °F 45% 29.58 in 10.0 mi West 21.9 mph 28.8 mph N/A   Scattered Clouds
12:55 PM 49.8 °F - 29.3 °F 45% 29.58 in 10.0 mi West 15.0 mph 26.5 mph N/A   Scattered Clouds
1:15 PM 48.9 °F - 29.1 °F 46% 29.59 in 10.0 mi West 15.0 mph 21.9 mph N/A   Scattered Clouds
1:35 PM 48.6 °F - 28.9 °F 47% 29.59 in 10.0 mi West 16.1 mph 23.0 mph N/A   Scattered Clouds
1:55 PM 50.2 °F - 28.4 °F 43% 29.58 in 10.0 mi West 15.0 mph 24.2 mph N/A   Scattered Clouds
2:15 PM 50.9 °F - 28.4 °F 42% 29.58 in 10.0 mi WSW 16.1 mph 19.6 mph N/A   Mostly Cloudy
2:35 PM 50.2 °F - 28.4 °F 43% 29.58 in 10.0 mi West 10.4 mph 20.7 mph N/A   Scattered Clouds
2:55 PM 50.2 °F - 28.2 °F 43% 29.58 in 10.0 mi West 13.8 mph 18.4 mph N/A   Scattered Clouds
3:15 PM 49.6 °F - 28.6 °F 44% 29.58 in 10.0 mi WSW 9.2 mph - N/A   Clear
3:35 PM 50.4 °F - 28.4 °F 43% 29.59 in 10.0 mi WSW 15.0 mph 19.6 mph N/A   Clear
3:55 PM 49.8 °F - 28.4 °F 44% 29.59 in 10.0 mi WSW 15.0 mph 20.7 mph N/A   Clear
4:15 PM 49.1 °F - 29.1 °F 46% 29.59 in 10.0 mi WSW 9.2 mph - N/A   Clear
4:35 PM 49.1 °F - 29.1 °F 46% 29.59 in 10.0 mi WSW 10.4 mph - N/A   Clear
4:55 PM 48.2 °F - 29.3 °F 48% 29.60 in 10.0 mi SW 8.1 mph - N/A   Clear
5:15 PM 46.9 °F - 30.0 °F 52% 29.59 in 10.0 mi SW 8.1 mph - N/A   Scattered Clouds
5:35 PM 47.8 °F - 29.7 °F 49% 29.60 in 10.0 mi SW 10.4 mph - N/A   Clear
5:55 PM 48.0 °F - 29.7 °F 49% 29.59 in 10.0 mi WSW 10.4 mph - N/A   Clear
6:15 PM 47.8 °F - 29.5 °F 49% 29.59 in 10.0 mi WSW 10.4 mph - N/A   Clear
6:35 PM 48.0 °F - 29.7 °F 49% 29.60 in 10.0 mi WSW 10.4 mph - N/A   Clear
6:55 PM 48.6 °F - 29.7 °F 48% 29.60 in 10.0 mi WSW 12.7 mph - N/A   Clear
7:15 PM 48.7 °F - 29.7 °F 48% 29.61 in 10.0 mi WSW 13.8 mph 19.6 mph N/A   Scattered Clouds
7:35 PM 49.3 °F - 29.1 °F 46% 29.66 in 10.0 mi NW 38.0 mph 54.1 mph N/A   Mostly Cloudy
7:55 PM 34.9 °F 21.8 °F 28.2 °F 77% 29.73 in 10.0 mi NNW 28.8 mph 40.3 mph N/A   Overcast
8:15 PM 32.5 °F 18.8 °F 25.7 °F 76% 29.77 in 10.0 mi NNW 27.6 mph 36.8 mph N/A   Overcast
8:35 PM 32.0 °F 19.5 °F 25.2 °F 76% 29.81 in 10.0 mi NNW 21.9 mph 38.0 mph N/A   Overcast
8:55 PM 31.1 °F 18.0 °F 23.9 °F 75% 29.84 in 7.0 mi NNW 23.0 mph 38.0 mph N/A   Overcast
9:15 PM 27.1 °F 11.0 °F 20.1 °F 75% 29.88 in 4.0 mi NNW 29.9 mph 38.0 mph N/A Snow Light Snow
9:35 PM 26.2 °F 11.5 °F 16.3 °F 66% 29.92 in 10.0 mi NW 23.0 mph 36.8 mph N/A   Overcast
9:55 PM 23.7 °F 7.5 °F 13.5 °F 65% 29.96 in 10.0 mi North 25.3 mph 36.8 mph N/A   Overcast
10:15 PM 22.1 °F 6.0 °F 12.2 °F 66% 29.98 in 10.0 mi NW 23.0 mph 33.4 mph N/A   Overcast
10:35 PM 21.2 °F 2.7 °F 9.1 °F 60% 30.00 in 10.0 mi NW 31.1 mph 39.1 mph N/A   Mostly Cloudy
10:55 PM 20.3 °F 3.3 °F 3.9 °F 49% 30.02 in 10.0 mi NW 24.2 mph 47.2 mph N/A   Scattered Clouds
11:15 PM 19.4 °F 1.8 °F 3.7 °F 51% 30.04 in 10.0 mi NW 25.3 mph 36.8 mph N/A   Scattered Clouds
11:35 PM 18.5 °F -0.4 °F -0.8 °F 43% 30.06 in 10.0 mi NW 28.8 mph 40.3 mph N/A   Clear
11:55 PM 18.1 °F 0.8 °F 0.3 °F 46% 30.08 in 10.0 mi NW 23.0 mph 34.5 mph N/A   Scattered Clouds